SCP
1 1 1 1 1 1 1 1 1 1 1 1 1 1 1 1 0 0 0 1 1 1 1 1 2 2 2 1 1 1 1 1 1 1 1 1 1 1 1 1 1 1 1
1 1 1 2 2 2 1 1 1 1 1 1 0 0 1 1 0 0 0 1 1 1 1 2 2 2 2 2 2 1 1 1 1 1 1 1 1 1 1 1 1 1 1
1 2 2 2 2 2 2 1 1 1 1 0 0 0 0 0 0 0 1 1 1 1 1 2 2 2 2 2 2 1 1 1 1 1 1 1 1 1 1 1 1 1 1
2 2 2 2 2 2 1 1 1 1 1 1 1 0 0 0 0 1 1 1 1 1 1 1 2 2 2 2 1 1 1 1 1 1 1 1 1 1 1 1 1 1 1
3 2 2 2 2 2 1 1 1 1 1 1 1 1 1 1 1 1 1 1 1 1 1 1 1 1 1 1 1 1 1 1 1 1 1 1 1 1 1 1 1 1 1
3 3 2 2 2 2 2 2 2 2 2 1 1 1 1 1 1 0 0 0 1 1 1 1 1 1 1 1 1 1 1 1 1 1 1 1 1 1 1 1 1 1 1
2 2 2 2 2 2 2 2 2 2 1 1 1 1 1 0 0 0 0 0 0 1 1 1 1 1 1 1 1 1 1 1 1 1 1 1 1 1 1 1 1 1 1
2 2 2 2 2 2 2 2 3 3 2 1 1 1 1 0 0 0 0 0 0 0 0 1 1 1 1 1 2 2 2 1 1 1 1 1 1 1 1 1 1 1 1
2 2 2 2 2 2 2 2 4 5 3 1 1 1 1 1 0 0 0 0 1 1 1 1 1 1 1 1 1 2 2 2 1 1 1 1 1 1 1 1 1 1 1
2 2 2 2 2 1 1 1 3 4 3 2 1 1 1 1 1 0 0 0 1 1 1 1 1 1 1 1 1 1 2 2 2 2 1 1 1 1 1 1 1 1 1
2 2 1 1 1 1 1 1 1 1 2 2 2 2 1 1 1 1 0 0 0 1 1 1 1 1 1 0 1 1 1 2 2 2 2 1 1 1 1 1 1 1 1
2 2 2 2 2 2 1 1 1 1 1 2 2 2 2 1 1 1 1 0 0 0 0 1 1 1 1 0 0 0 1 1 1 2 2 1 1 1 1 1 1 1 1
2 2 2 2 2 2 2 2 1 1 1 2 2 2 2 1 1 1 1 1 0 0 0 0 1 1 1 1 0 0 0 1 1 1 1 1 1 1 1 1 1 1 1
2 2 2 2 2 2 2 2 2 2 1 1 2 2 2 1 1 1 1 1 1 0 0 0 0 1 1 1 1 1 1 0 0 0 1 1 1 1 1 1 1 1 1
4 3 3 3 3 3 3 3 3 2 2 2 2 2 2 2 1 1 1 1 1 1 0 0 0 0 1 1 1 1 1 1 0 0 0 0 0 0 0 0 0 0 0
5 5 4 3 3 3 3 4 3 3 2 2 2 2 2 2 1 1 1 1 1 1 0 0 0 0 0 1 1 1 1 1 0 0 0 0 0 0 0 0 0 0 0
7 6 5 4 4 4 4 4 4 3 2 2 2 2 2 2 1 1 1 1 1 1 1 0 0 0 0 1 1 1 1 1 1 0 0 0 0 0 0 0 0 0 0
8 8 7 6 5 5 4 4 4 3 2 1 1 1 1 1 1 1 1 1 1 1 1 0 0 0 0 0 0 0 1 1 1 0 0 0 0 0 0 0 0 0 0
8 8 7 6 5 4 3 3 3 2 1 1 1 1 1 1 1 1 1 1 1 0 0 0 0 0 0 0 0 0 0 1 1 1 0 0 0 0 0 0 0 0 0
5 5 5 4 3 2 2 2 2 1 1 1 1 1 1 1 1 1 1 1 0 0 0 0 0 0 0 1 0 0 0 0 0 1 0 0 0 0 0 0 0 0 0
3 3 3 3 2 2 1 1 1 1 1 1 1 1 1 1 1 1 1 1 0 0 1 1 1 1 0 0 0 0 0 0 0 0 0 0 0 0 0 0 0 0 0
3 3 3 3 3 2 1 1 1 1 1 1 1 1 1 1 0 1 1 0 0 1 1 1 1 1 1 0 0 0 0 0 0 0 0 0 0 0 0 0 0 0 0
3 3 3 3 3 2 1 1 1 2 2 1 1 1 1 1 0 1 1 1 1 1 1 1 1 1 1 1 1 1 0 0 0 0 0 0 0 0 0 0 0 0 0
3 3 3 3 3 2 1 0 1 2 2 2 2 1 1 1 1 1 1 1 1 1 1 1 1 1 1 1 1 1 0 0 0 0 0 0 0 0 0 0 0 0 0
2 2 2 2 3 2 1 0 1 2 3 3 3 3 2 2 2 2 2 2 1 1 0 1 1 1 1 1 1 0 0 0 0 0 0 0 0 0 0 0 0 0 0
2 1 2 2 3 2 1 1 1 2 3 4 4 4 3 3 2 2 3 3 2 1 0 1 1 0 0 0 0 0 0 0 0 0 0 1 1 0 0 0 0 0 0
Wind_Speed
3 2 2 2 2 2 2 2 1 1 2 2 3 4 4 4 4 3 3 8 9 10 11 12 12 11 11 11 10 10 9 9 9 8 8 8 7 7 7 7 7 7 6
3 2 2 2 2 2 2 2 2 2 1 1 2 3 3 3 3 4 3 5 9 9 10 11 11 12 12 11 11 10 10 10 9 9 8 8 7 7 7 7 7 7 6
3 3 2 1 1 2 2 2 2 1 1 1 1 2 2 3 3 4 3 3 4 8 9 10 10 11 11 11 11 11 10 10 10 9 9 9 8 7 7 7 7 7 7
4 3 2 1 1 2 2 2 2 2 1 1 1 1 1 2 3 3 3 3 3 3 6 9 10 11 11 11 11 11 11 11 10 10 10 10 9 8 8 8 8 7 7
3 3 2 1 2 2 1 2 2 2 2 1 1 1 1 2 2 3 3 4 4 3 3 6 10 10 11 11 11 11 11 11 11 10 10 11 10 9 9 9 8 8 8
3 3 2 1 2 2 1 1 2 2 2 2 2 1 1 2 2 3 3 3 3 4 4 4 4 6 10 11 11 11 11 11 10 10 10 11 11 10 10 10 9 9 9
3 2 2 2 2 2 2 2 2 2 1 1 1 1 1 1 2 2 2 2 3 4 3 3 3 3 4 9 10 11 11 11 10 10 11 11 11 10 11 11 10 10 10
3 3 2 2 2 2 1 1 2 2 1 2 2 1 1 2 2 2 2 3 3 2 3 4 4 4 3 3 6 11 10 10 10 10 10 10 10 11 11 11 11 11 10
3 3 3 2 2 2 2 2 3 3 2 1 2 3 3 2 2 2 1 2 2 2 3 3 4 4 4 3 4 8 10 10 10 11 10 9 10 10 11 12 12 11 11
3 3 3 3 2 2 2 2 3 2 3 2 1 1 2 3 2 1 2 1 2 3 3 3 4 4 4 4 5 7 9 10 10 11 10 9 9 10 10 11 12 12 12
2 2 2 2 2 2 2 2 3 2 2 3 2 1 1 1 1 2 2 2 2 2 3 3 3 3 4 4 4 6 9 9 10 10 10 10 10 10 11 11 12 12 13
1 1 2 2 2 2 2 2 3 3 3 3 2 2 2 2 2 2 2 2 2 3 2 2 3 3 3 4 6 8 9 9 10 10 10 10 10 11 11 11 12 12 13
1 2 2 2 2 2 2 2 2 2 3 3 3 2 2 2 2 3 2 2 1 2 1 1 2 3 3 3 4 7 8 9 10 10 10 10 10 10 11 11 11 12 12
3 2 2 2 2 2 2 2 2 2 2 3 3 3 2 2 2 3 3 3 1 1 1 2 2 2 3 3 5 7 5 9 10 10 10 10 10 10 10 10 10 10 10
2 2 2 2 2 1 2 2 2 2 2 3 3 3 2 2 2 2 2 3 3 2 2 3 2 2 2 2 4 4 4 7 9 10 10 10 10 10 10 10 10 10 10
1 2 2 2 1 1 1 2 1 1 2 2 2 2 2 1 1 1 2 2 2 3 3 3 2 2 2 2 3 3 4 6 8 9 10 10 10 10 10 10 10 10 10
1 2 3 2 2 2 1 2 2 1 2 1 2 2 2 2 1 1 2 1 1 2 2 2 2 1 1 2 1 2 2 3 4 8 9 9 10 10 10 10 10 10 10
2 2 2 2 3 2 2 2 2 2 2 2 2 2 2 2 2 2 2 2 2 2 2 2 2 1 2 3 2 2 2 3 3 6 8 9 9 9 10 10 10 10 10
2 1 2 2 2 2 3 3 3 2 2 2 3 3 3 2 2 1 2 2 1 1 1 2 2 1 1 1 1 2 3 2 4 4 7 8 9 9 10 10 10 10 10
1 2 2 2 2 2 2 2 2 2 2 2 2 3 3 3 4 3 2 2 2 1 1 1 1 1 1 1 1 2 2 2 3 3 4 4 6 8 9 10 11 10 11
2 2 2 2 2 2 2 3 3 3 2 1 1 2 2 3 5 4 3 3 3 2 1 1 1 1 1 1 2 2 3 2 3 2 2 2 3 3 5 7 9 11 11
1 1 2 2 2 2 3 4 3 3 2 2 2 2 2 2 3 4 4 5 6 4 4 3 2 3 3 3 2 2 2 1 2 2 1 3 2 4 4 4 8 11 11
2 2 1 2 2 2 3 3 3 3 3 3 3 2 2 2 2 2 3 3 4 5 7 5 5 5 4 4 3 3 3 3 4 3 1 3 2 4 4 5 9 10 10
2 2 1 1 1 1 2 3 3 2 2 2 3 3 3 3 2 2 2 1 2 3 4 4 4 5 5 4 5 5 4 3 2 2 2 3 3 3 4 4 7 9 9
2 1 1 2 2 1 2 2 2 1 1 2 2 3 3 3 3 3 3 2 2 3 3 3 4 4 5 6 4 2 1 1 2 3 2 3 2 2 3 3 4 6 7
2 1 1 2 2 2 3 3 3 1 1 1 2 2 3 3 3 4 3 3 3 3 2 2 2 3 3 3 4 5 4 3 2 3 3 3 2 1 2 3 2 2 3
Wind_Direction
170 168 176 188 190 178 175 177 184 186 197 199 191 181 179 178 176 173 182 183 182 185 184 181 181 182 182 180 177 177 177 175 174 175 178 178 178 178 181 185 185 186 186
167 166 165 176 188 183 177 180 188 186 193 182 178 183 185 178 174 176 177 185 187 187 190 188 188 189 189 186 183 182 184 185 184 184 185 184 184 184 185 189 191 191 189
165 163 161 179 194 177 167 158 169 163 175 175 181 186 179 176 171 177 176 176 190 195 195 196 195 194 193 191 191 190 192 191 190 190 192 193 192 193 194 194 193 196 197
156 154 157 181 180 152 153 156 155 152 173 178 192 206 190 178 180 184 175 179 190 196 201 202 201 201 199 199 198 199 199 199 200 201 201 203 202 201 201 201 198 198 197
154 147 159 175 152 139 154 171 146 149 155 181 204 207 199 192 194 186 178 186 192 194 200 205 204 202 204 205 205 205 205 207 208 208 209 210 209 207 204 204 204 199 200
146 145 153 159 142 130 138 141 139 150 166 180 193 212 226 218 196 185 197 193 196 204 202 201 199 205 207 207 208 209 209 212 212 213 216 214 211 207 205 207 206 205 204
140 138 149 146 143 146 169 163 145 151 172 133 98 12 339 256 214 208 202 192 201 203 191 195 197 198 209 210 211 213 214 216 216 216 218 215 211 208 207 207 207 207 205
161 157 156 165 168 156 150 158 145 150 185 153 136 119 356 342 308 242 209 201 202 188 187 197 195 198 206 202 211 213 213 215 218 219 219 214 212 211 210 210 211 210 208
166 158 163 163 171 169 184 191 167 163 176 190 159 153 156 212 286 310 247 210 198 191 202 194 195 202 204 205 210 215 209 210 217 220 221 217 216 216 216 213 214 215 214
174 166 163 164 166 170 188 201 180 172 161 184 212 192 169 161 162 273 310 275 222 210 213 209 204 203 206 205 207 207 208 212 216 221 222 220 221 220 220 220 219 221 221
177 173 167 168 171 177 190 193 177 174 174 178 186 183 163 133 151 157 244 286 286 248 223 216 209 203 202 204 207 213 213 214 218 221 222 223 224 225 224 225 225 226 227
201 190 174 171 184 184 189 187 183 180 184 179 181 173 166 168 184 164 198 235 258 266 240 221 214 211 204 205 216 217 215 216 217 218 223 226 228 230 227 229 231 232 231
202 214 192 188 194 200 195 184 182 186 181 177 185 189 185 193 176 163 165 195 237 278 284 252 227 212 210 208 220 220 218 217 218 220 224 229 232 234 233 234 235 236 235
204 198 190 195 198 191 188 180 182 193 183 191 200 191 187 201 179 172 169 162 183 291 296 268 268 227 220 208 218 215 220 219 220 222 226 230 232 236 237 236 237 238 235
192 172 178 194 204 194 189 169 188 204 192 197 200 194 193 203 188 186 175 166 162 199 253 256 260 253 230 213 218 211 219 226 225 225 228 230 231 235 238 238 237 236 234
184 171 182 197 210 203 194 181 186 200 191 204 192 179 191 204 197 185 177 174 166 173 218 242 238 257 246 234 221 212 221 228 231 232 232 234 236 236 239 240 238 236 236
185 197 198 192 193 201 204 190 193 181 190 208 195 179 201 197 195 197 177 171 171 163 205 260 256 265 230 232 229 233 230 226 237 240 239 239 239 240 240 240 239 239 239
195 200 195 194 195 199 197 196 204 199 191 197 201 184 211 201 201 201 177 184 196 189 182 233 267 268 248 237 224 235 246 240 245 248 244 241 241 241 241 241 239 238 238
190 192 184 194 200 200 200 203 197 191 191 203 197 195 211 187 207 209 191 191 205 208 179 191 246 254 262 256 246 256 252 251 255 255 245 245 246 245 244 244 241 238 239
204 213 200 202 199 194 192 189 183 175 187 198 197 201 207 195 204 201 196 194 185 176 183 196 238 263 263 270 209 244 268 258 258 258 256 257 254 250 248 248 244 241 239
234 220 202 203 199 196 195 189 187 182 187 203 219 224 226 215 207 200 198 194 182 180 185 200 228 246 253 251 235 225 246 267 272 245 251 267 261 256 252 250 246 243 242
247 244 213 195 199 218 197 183 179 183 190 200 223 245 246 231 219 217 216 204 192 192 198 202 216 224 235 232 226 227 225 242 278 256 216 272 245 257 255 242 244 243 242
192 231 223 184 203 236 199 185 185 188 201 211 220 233 246 242 226 227 232 227 225 225 211 199 209 222 221 219 208 226 226 219 236 244 194 262 256 259 259 256 247 243 244
184 196 216 194 182 234 214 201 196 190 208 221 224 222 223 238 224 208 209 230 254 255 240 215 212 224 225 218 206 210 216 230 261 258 182 230 254 258 268 260 250 243 246
185 196 197 177 177 246 230 204 174 161 213 253 244 229 216 214 226 203 186 215 263 280 279 255 243 242 242 242 224 188 211 204 261 266 212 203 243 269 273 264 257 244 245
189 191 205 198 195 217 228 212 180 168 211 263 284 267 233 218 222 196 190 198 234 261 271 300 299 291 269 257 239 206 198 204 223 254 235 198 224 226 285 273 261 256 252